www.pogodaiklimat.ru

Погода и климат >> Архив погоды >> Австралия >> Западная Австралия >> Ньюман


ПОГОДА в Ньюмане

  • Прогноз погоды в Ньюмане
  • Монитор погоды в Ньюмане

АРХИВ ПОГОДЫ в Ньюмане

Время (UTC), дата Ветер
(напр.,м/с)
 
Видим.   Явления Облачность Т
(С)
Тd
(С)
f
(%)
Тe
(С)
Тes
(С)
Комфортность P
(гПа)
Po
(гПа)
Тmin
(С)
Tmax
(С)
R
(мм)
R24
(мм)
S
(см)
13 9.09 СВ 2 н/о н/о +24.6 -0.5 19 +23 +23 комфорт 1017.4 957.9 +34.8
15 9.09 штиль 0 н/о н/о +21.1 -0.2 24 +21 +21 комфорт 1017.2 957.7
16 9.09 Ю 2 н/о 9/0
[]
+21.1 -0.2 24 +21 +21 комфорт 1017.3 957.8
18 9.09 штиль 0 н/о н/о +19.7 -0.9 25 +20 +20 1016.6 957.1
19 9.09 З 1 н/о 1/0
[]
+19.3 -0.1 27 +20 +20 1016.5 957.0
21 9.09 СЗ 4 н/о н/о +24.4 -0.7 19 +23 +23 комфорт 1018.1 958.5
22 9.09 В 3 н/о н/о +22.3 -1.1 21 +21 +21 комфорт 1018.8 959.2
00 10.09 СВ 3 н/о н/о +27.2 -3.6 13 +24 +24 комфорт 1020.2 960.5
01 10.09 СВ 6 н/о н/о +28.6 -4.7 11 +25 +25 комфорт 1020.3 960.6 +18.7
03 10.09 С 5 н/о н/о +32.3 -3.2 10 +29 +29 жарко 1019.7 960.0
04 10.09 С 7 н/о н/о +33.2 -3.9 9 +29 +29 жарко 1018.9 959.3
06 10.09 СВ 6 н/о н/о +34.6 -2.9 9 +31 +31 жарко 1017.2 957.7
07 10.09 СВ 5 н/о н/о +34.5 -4.5 8 +30 +30 жарко 1016.8 957.3
09 10.09 С 5 н/о н/о +33.3 -5.4 8 +29 +29 жарко 1017.1 957.6
10 10.09 С 3 н/о н/о +31.5 -5.2 9 +28 +28 жарко 1017.6 958.1
12 10.09 С 2 н/о н/о +26.9 -3.8 13 +24 +24 комфорт 1019.3 959.7
13 10.09 С 3 н/о н/о +26.1 -4.4 13 +24 +24 комфорт 1020.0 960.3 +35.6
15 10.09 СВ 5 н/о н/о +25.4 -5.0 13 +23 +23 комфорт 1020.5 960.8
16 10.09 С 2 н/о н/о +23.1 -4.9 15 +21 +21 комфорт 1020.4 960.7
18 10.09 С 1 н/о н/о +17.4 -5.1 21 +19 +19 1020.4 960.7
19 10.09 СЗ 2 н/о н/о +17.5 -5.0 21 +18 +18 1020.3 960.6
21 10.09 штиль 0 н/о н/о +15.3 -5.7 23 +15 +15 1021.5 961.7
22 10.09 В 1 н/о н/о +14.7 -5.1 25 +16 +16 1021.8 962.0
00 11.09 СВ 2 н/о н/о +25.3 -4.1 14 +23 +23 комфорт 1023.1 963.2
01 11.09 С 5 н/о н/о +29.3 -6.8 9 +26 +26 жарко 1023.1 963.2 +14.7
03 11.09 С 6 н/о н/о +30.9 -8.9 7 +27 +27 жарко 1022.3 962.5
04 11.09 В 3 н/о н/о +31.8 -8.2 7 +28 +28 жарко 1021.6 961.8
06 11.09 С 4 н/о н/о +32.1 -9.9 6 +28 +28 жарко 1019.8 960.1
07 11.09 ЮВ 2 н/о н/о +33.0 -9.3 6 +29 +29 жарко 1019.2 959.6
09 11.09 В 3 н/о н/о +31.8 -10.2 6 +27 +27 жарко 1019.3 959.7
10 11.09 В 3 н/о н/о +30.5 -9.1 7 +26 +26 жарко 1019.8 960.1
12 11.09 В 2 н/о н/о +23.2 -11.4 9 +20 +20 1021.4 961.6
13 11.09 штиль 0 н/о н/о +20.8 -9.6 12 +20 +20 1021.8 962.0 +33.7
15 11.09 ЮЗ 2 н/о н/о +17.3 -9.5 15 +18 +18 1021.6 961.8
16 11.09 ЮЗ 2 н/о н/о +16.6 -10.1 15 +17 +17 1021.5 961.7
18 11.09 ЮЗ 1 н/о н/о +14.8 -10.0 17 +16 +16 1020.6 960.9
19 11.09 ЮЗ 3 н/о н/о +14.0 -9.9 18 +14 +14 1020.4 960.7
21 11.09 ЮЗ 2 н/о н/о +12.5 -9.8 20 +12 +12 1021.0 961.3
22 11.09 штиль 0 н/о н/о +11.8 -10.4 20 +12 +12 1021.9 962.1
00 12.09 СЗ 1 н/о н/о +24.4 -10.5 9 +22 +22 комфорт 1023.7 963.8
01 12.09 С 4 н/о н/о +27.8 -13.0 6 +24 +24 комфорт 1023.7 963.8 +11.9
03 12.09 С 4 н/о н/о +30.1 -16.3 4 +26 +26 жарко 1022.7 962.9
04 12.09 СВ 4 н/о н/о +30.8 -15.8 4 +26 +26 жарко 1021.9 962.1
06 12.09 В 6 н/о н/о +32.5 -14.7 4 +28 +28 жарко 1019.7 960.0
07 12.09 В 5 н/о н/о +32.8 -14.5 4 +28 +28 жарко 1019.2 959.6
09 12.09 В 6 н/о н/о +31.9 -15.1 4 +27 +27 жарко 1019.3 959.7
10 12.09 В 5 н/о н/о +29.7 -16.6 4 +25 +25 комфорт 1019.9 960.2
12 12.09 В 3 н/о н/о +24.4 -15.5 6 +21 +21 комфорт 1021.3 961.5
13 12.09 В 2 н/о н/о +22.3 -17.0 6 +20 +20 1021.6 961.8 +33.8
15 12.09 штиль 0 н/о н/о +15.3 -17.3 9 +15 +15 1021.5 961.7
16 12.09 ЮЗ 2 н/о н/о +13.7 -15.1 12 +14 +14 1021.0 961.3
18 12.09 ЮЗ 2 н/о н/о +11.4 -16.0 13 +11 +11 1020.3 960.6
19 12.09 ЮЗ 3 н/о н/о +10.7 -15.7 14 +10 +10 1020.1 960.4
21 12.09 ЮЗ 2 н/о н/о +9.3 -15.2 16 +9 +9 1020.7 961.0
22 12.09 ЮЗ 2 н/о н/о +8.7 -15.7 16 +8 +8 1021.0 961.3
00 13.09 штиль 0 н/о н/о +19.7 -17.0 7 +19 +19 1022.0 962.2
01 13.09 С 1 н/о н/о +26.7 -16.0 5 +23 +23 комфорт 1021.8 962.0 +8.7
03 13.09 СВ 8 н/о н/о +30.7 -19.3 3 +26 +26 жарко 1021.0 961.3
04 13.09 В 8 н/о н/о +31.1 -23.6 2 +26 +26 жарко 1020.0 960.3
06 13.09 СВ 7 н/о н/о +33.1 -22.4 2 +28 +28 жарко 1018.3 958.7
07 13.09 СВ 6 н/о н/о +32.7 -22.6 2 +28 +28 жарко 1018.0 958.4
09 13.09 СВ 5 н/о н/о +31.5 -23.4 2 +27 +27 жарко 1018.2 958.6
10 13.09 СВ 3 н/о н/о +28.8 -25.1 2 +24 +24 комфорт 1018.6 959.0
12 13.09 штиль 0 н/о н/о +19.4 -21.2 5 +19 +19 1020.2 960.5
13 13.09 С 1 н/о н/о +18.0 -22.2 5 +19 +19 1020.4 960.7 +33.5
15 13.09 ЮЗ 2 н/о н/о +13.3 -20.2 8 +13 +13 1020.2 960.5
16 13.09 ЮЗ 2 н/о н/о +12.0 -21.2 8 +12 +12 1019.9 960.2
18 13.09 ЮЗ 2 н/о н/о +10.3 -21.1 9 +10 +10 1019.2 959.6
19 13.09 ЮЗ 2 н/о н/о +9.9 -21.5 9 +9 +9 1018.7 959.1
21 13.09 ЮЗ 2 н/о н/о +8.1 -20.5 11 +7 +7 1019.3 959.7
22 13.09 Ю 2 н/о н/о +7.8 -21.9 10 +7 +7 1020.1 960.4
00 14.09 штиль 0 н/о н/о +18.7 -19.6 6 +18 +18 1021.3 961.5
01 14.09 С 2 н/о н/о +25.1 -19.7 4 +22 +22 комфорт 1021.3 961.5 +7.5
03 14.09 СВ 5 н/о н/о +30.5 -19.4 3 +26 +26 жарко 1020.2 960.5
04 14.09 СВ 6 н/о н/о +31.1 -19.0 3 +26 +26 жарко 1019.3 959.7
06 14.09 С 6 н/о н/о +32.3 -22.9 2 +27 +27 жарко 1017.3 957.8
07 14.09 С 5 н/о н/о +31.8 -23.2 2 +27 +27 жарко 1017.2 957.7
09 14.09 С 4 н/о н/о +31.5 -18.8 3 +27 +27 жарко 1016.9 957.4
10 14.09 СВ 3 н/о н/о +29.6 -16.7 4 +25 +25 комфорт 1017.3 957.8
12 14.09 В 2 н/о н/о +21.6 -19.6 5 +19 +19 1018.4 958.8
13 14.09 ЮВ 2 н/о н/о +20.0 -18.6 6 +20 +20 1018.6 959.0 +33.3
15 14.09 ЮЗ 2 н/о н/о +15.0 -17.6 9 +15 +15 1018.2 958.6
16 14.09 ЮЗ 2 н/о н/о +14.3 -18.1 9 +15 +15 1018.0 958.4
18 14.09 ЮЗ 3 н/о н/о +11.9 -19.9 9 +11 +11 1017.3 957.8
19 14.09 ЮЗ 3 н/о н/о +11.3 -19.2 10 +11 +11 1017.1 957.6
21 14.09 ЮЗ 3 н/о н/о +10.7 -19.6 10 +10 +10 1017.6 958.1
22 14.09 ЮЗ 2 н/о н/о +10.2 -18.9 11 +10 +10 1018.1 958.5
00 15.09 штиль 0 н/о н/о +21.2 -15.9 7 +19 +19 1018.9 959.3
01 15.09 штиль 0 н/о н/о +26.3 -16.3 5 +23 +23 комфорт 1018.8 959.2 +9.9
03 15.09 СВ 6 н/о н/о +31.8 -15.2 4 +27 +27 жарко 1017.5 958.0
04 15.09 С 5 н/о н/о +32.0 -15.0 4 +27 +27 жарко 1017.0 957.5
06 15.09 СВ 4 н/о н/о +32.9 -14.4 4 +28 +28 жарко 1015.1 955.7
07 15.09 В 3 н/о н/о +33.7 -13.9 4 +29 +29 жарко 1014.3 955.0
09 15.09 С 4 н/о н/о +32.6 -18.0 3 +28 +28 жарко 1014.6 955.2
10 15.09 С 3 н/о н/о +30.5 -16.0 4 +26 +26 жарко 1015.0 955.6
12 15.09 штиль 0 н/о н/о +21.4 -15.8 7 +20 +20 1016.2 956.7
13 15.09 штиль 0 н/о н/о +19.1 -15.9 8 +19 +19 1016.2 956.7 +34.6
15 15.09 ЮВ 2 н/о н/о +16.8 -16.2 9 +17 +17 1015.8 956.4
16 15.09 Ю 2 н/о н/о +15.2 -17.4 9 +16 +16 1015.7 956.3
18 15.09 ЮЗ 2 н/о н/о +12.2 -16.3 12 +12 +12 1014.9 955.5
19 15.09 штиль 0 н/о н/о +11.6 -16.8 12 +12 +12 1014.5 955.1
21 15.09 ЮЗ 3 н/о н/о +12.2 -17.4 11 +12 +12 1015.8 956.4
22 15.09 З 2 н/о н/о +11.8 -16.6 12 +12 +12 1016.2 956.7
00 16.09 ЮЗ 2 н/о н/о +21.5 -15.7 7 +20 +20 1017.3 957.8
01 16.09 ЮЗ 4 н/о н/о +27.1 -11.6 7 +23 +23 комфорт 1017.4 957.9 +10.6
03 16.09 СВ 2 н/о н/о +32.6 -11.9 5 +28 +28 жарко 1016.6 957.1
04 16.09 С 6 н/о н/о +32.7 -11.8 5 +28 +28 жарко 1015.4 956.0
06 16.09 С 4 н/о н/о +33.8 -13.8 4 +29 +29 жарко 1013.5 954.2
07 16.09 СЗ 4 н/о н/о +33.6 -13.9 4 +29 +29 жарко 1013.3 954.0
09 16.09 С 4 н/о н/о +33.2 -14.2 4 +28 +28 жарко 1013.2 953.9
10 16.09 СВ 3 н/о н/о +30.9 -13.1 5 +26 +26 жарко 1013.6 954.3
12 16.09 СВ 2 н/о н/о +24.9 -11.6 8 +22 +22 комфорт 1014.7 955.3

 

Местоположение метеостанции Ньюман (Западная Австралия, Австралия): широта -23.41 долгота 119.80 высота над уровнем моря 524 м.

В архиве по умолчанию представлена погода в Ньюмане за последнюю неделю. Архивные данные за месяц целиком и за предыдущие месяцы, начиная с января 2011 года, Вы можете получить, выбрав интересующий диапазон дат из раскрывающегося списка и нажав кнопку "Ввод!".


*Определитесь, кто Вы:
робот инопланетянин человек

Внимание! Время в таблицах - всемирное. Для получения местного времени необходимо прибавить поправку, которая равна 8 ч.

Смотрите также архив погоды в соседних городах и на ближайших метеорологических станциях:

Погода в Параберду (Западная Австралия, Австралия) (211 км)
Погода в Марбл-баре (Западная Австралия, Австралия) (248 км)
Погода в Телфере (Западная Австралия, Австралия) (311 км)
Погода в Порт-Хедленде Apardoo (Западная Австралия, Австралия) (360 км)
Погода в Микатарре (Западная Австралия, Австралия) (378 км)
Погода в Роборн аэропорту (Западная Австралия, Австралия) (403 км)
Погода в Мандоре (Западная Австралия, Австралия) (423 км)
Погода в Каррате (Западная Австралия, Австралия) (432 км)
Погода в Марди (Западная Австралия, Австралия) (466 км)
Погода в Леинстере (Западная Австралия, Австралия) (502 км)

Пояснения к столбцам:

Ветер - указаны скорость ветра в м/с - средняя за 10 мин, порывы в срок и между сроками (в фигурных скобках) и направление, откуда дует ветер: С - северный, СВ - северо-восточный, В - восточный, ЮВ - юго-восточный, Ю - южный, ЮЗ - юго-западный, З - западный, СЗ - северо-западный.
Видимость - горизонтальная дальность видимости в метрах или километрах. При видимости от 1 до 10 км при отсутствии осадков обычно наблюдается дымка, при ухудшении видимости до 1 км и менее - туман. В сухую погоду видимость может ухудшаться дымом, пылью или мглою.
Явления - указаны атмосферные явления, наблюдавшиеся в срок или в последний час перед сроком; фигурными скобками обозначены явления, наблюдавшиеся между сроками (за 1-3 часа до срока); квадратными скобками обозначены град или гололедные отложения с указанием их диаметра в мм.
Облачность - указаны через наклонную черту общая и нижняя облачность в баллах и высота нижней границы облаков в метрах; квадратными скобками обозначены формы облаков: Ci - перистые, Cs - перисто-слоистые, Cc - перисто-кучевые, Ac - высококучевые, As - высокослоистые, Sc - слоисто-кучевые, Ns - слоисто-дождевые, Cu - кучевые, Cb - кучево-дождевые. Подробнее классификацию облаков см. в Атласе облаков (PDF).
T - Температура воздуха - температура, измеренная на высоте 2 м над землей.
Td - Температура точки росы - температура, при понижении до которой содержащийся в воздухе водяной пар достигнет насыщения.
f - Относительная влажность воздуха - влажноcть воздуха, измеренная на высоте 2 м над землей.
Te - Эффективная температура - температура, которую ощущает одетый по сезону человек в тени. Характеристика душности погоды. При расчете учитывается влияние влажности воздуха и скорости ветра на теплоощущения человека.
Tes - Эффективная температура на солнце - температура, которую ощущает человек, с поправкой на солнечный нагрев. Характеристика знойности погоды. Зависит от высоты солнца над горизонтом, облачности и скорости ветра. Ночью, в пасмурную погоду, а также при ветре 12 м/с и более поправка равна нулю.
P - Атмосферное давление - приведенное к уровню моря атмосферное давление.
Po - Атмосферное давление - измеренное на уровне метеостанции атмосферное давление.
Tmin - Минимальная температура - минимум температуры воздуха на высоте 2 м над землей.
Tmax - Максимальная температура - максимум температуры воздуха на высоте 2 м над землей.
R - Количество осадков - Количество выпавших осадков за период времени, мм. При наведении курсора мыши на число - период времени, за который выпало указанное количество осадков.
R24 - Количество осадков - Количество выпавших осадков за 24 часа, мм.
S - Снежный покров - Высота снежного покрова, см. При наведении курсора мыши на число - состояние снежного покрова и степень покрытия местности в баллах.